H1 CPF 2 NER 2022 12 29 10 363 01 glonass137 H2 1705501 9137 42939 2022 12 29 0 0 0 2023 1 1 23 45 0 900 1 1 0 0 0 1 H9 10 0 59942 0.00000 0 -7085411.327 17613871.286 -17035915.921 10 0 59942 900.00000 0 -8431643.842 19041311.246 -14733514.888 10 0 59942 1800.00000 0 -9471203.386 20337197.855 -12144976.054 10 0 59942 2700.00000 0 -10209569.786 21441993.225 -9320593.552 10 0 59942 3600.00000 0 -10664322.826 22300572.907 -6315231.281 10 0 59942 4500.00000 0 -10864139.393 22864584.047 -3187256.461 10 0 59942 5400.00000 0 -10847330.135 23094538.344 2594.527 10 0 59942 6300.00000 0 -10659978.517 22961551.693 3192395.859 10 0 59942 7200.00000 0 -10353761.739 22448657.232 6320234.324 10 0 59942 8100.00000 0 -9983546.364 21551636.400 9325410.227 10 0 59942 9000.00000 0 -9604860.785 20279332.859 12149613.717 10 0 59942 9900.00000 0 -9271351.677 18653435.790 14738053.616 10 0 59942 10800.00000 0 -9032332.088 16707741.280 17040517.030 10 0 59942 11700.00000 0 -8930524.739 14486922.176 19012339.534 10 0 59942 12600.00000 0 -9000095.780 12044857.253 20615267.474 10 0 59942 13500.00000 0 -9265061.885 9442588.674 21818196.274 10 0 59942 14400.00000 0 -9738137.943 6745991.914 22597770.994 10 0 59942 15300.00000 0 -10420074.079 4023254.241 22938837.968 10 0 59942 16200.00000 0 -11299510.389 1342265.471 22834739.146 10 0 59942 17100.00000 0 -12353356.227 -1231971.719 22287443.592 10 0 59942 18000.00000 0 -13547678.977 -3639805.356 21307513.475 10 0 59942 18900.00000 0 -14839066.074 -5829170.327 19913904.880 10 0 59942 19800.00000 0 -16176404.206 -7757505.158 18133606.679 10 0 59942 20700.00000 0 -17503001.983 -9393270.405 16001123.799 10 0 59942 21600.00000 0 -18758967.822 -10717006.171 13557814.038 10 0 59942 22500.00000 0 -19883743.741 -11721885.300 10851090.551 10 0 59942 23400.00000 0 -20818688.776 -12413739.668 7933504.849 10 0 59942 24300.00000 0 -21509603.276 -12810559.131 4861727.699 10 0 59942 25200.00000 0 -21909087.397 -12941484.854 1695447.533 10 0 59942 26100.00000 0 -21978633.749 -12845340.059 -1503792.041 10 0 59942 27000.00000 0 -21690365.141 -12568760.962 -4673792.637 10 0 59942 27900.00000 0 -21028343.158 -12164007.661 -7752915.506 10 0 59942 28800.00000 0 -19989391.439 -11686548.366 -10681285.559 10 0 59942 29700.00000 0 -18583398.001 -11192520.074 -13401960.855 10 0 59942 30600.00000 0 -16833082.995 -10736173.922 -15862044.241 10 0 59942 31500.00000 0 -14773240.951 -10367414.065 -18013714.897 10 0 59942 32400.00000 0 -12449488.696 -10129534.767 -19815159.558 10 0 59942 33300.00000 0 -9916570.872 -10057251.827 -21231385.250 10 0 59942 34200.00000 0 -7236293.557 -10175111.790 -22234897.882 10 0 59942 35100.00000 0 -4475171.830 -10496346.292 -22806233.875 10 0 59942 36000.00000 0 -1701888.925 -11022219.958 -22934334.958 10 0 59942 36900.00000 0 1015327.692 -11741899.394 -22616759.255 10 0 59942 37800.00000 0 3611304.756 -12632848.854 -21859725.015 10 0 59942 38700.00000 0 6026388.915 -13661736.052 -20677986.429 10 0 59942 39600.00000 0 8208677.933 -14785810.096 -19094544.113 10 0 59942 40500.00000 0 10115925.698 -15954693.775 -17140195.962 10 0 59942 41400.00000 0 11717042.866 -17112514.976 -14852937.005 10 0 59942 42300.00000 0 12993131.832 -18200287.689 -12277219.875 10 0 59942 43200.00000 0 13938014.236 -19158442.542 -9463090.118 10 0 59942 44100.00000 0 14558230.399 -19929400.398 -6465213.052 10 0 59942 45000.00000 0 14872512.105 -20460080.603 -3341811.143 10 0 59942 45900.00000 0 14910752.316 -20704238.162 -153532.610 10 0 59942 46800.00000 0 14712516.407 -20624531.236 3037726.625 10 0 59942 47700.00000 0 14325158.757 -20194231.646 6170024.470 10 0 59942 48600.00000 0 13801625.008 -19398506.072 9182574.183 10 0 59942 49500.00000 0 13198033.424 -18235213.687 12016922.454 10 0 59942 50400.00000 0 12571137.851 -16715186.246 14618081.063 10 0 59942 51300.00000 0 11975779.567 -14861978.340 16935590.359 10 0 59942 52200.00000 0 11462435.559 -12711097.564 18924494.239 10 0 59942 53100.00000 0 11074966.455 -10308746.092 20546208.095 10 0 59942 54000.00000 0 10848658.856 -7710125.244 21769263.494 10 0 59942 54900.00000 0 10808644.255 -4977372.670 22569915.724 10 0 59942 55800.00000 0 10968761.038 -2177216.973 22932602.897 10 0 59942 56700.00000 0 11330907.418 621553.961 22850248.115 10 0 59942 57600.00000 0 11884912.795 3350706.969 22324399.002 10 0 59942 58500.00000 0 12608933.395 5945152.524 21365201.791 10 0 59942 59400.00000 0 13470356.202 8345402.165 19991210.149 10 0 59942 60300.00000 0 14427173.998 10499793.356 18229031.848 10 0 59942 61200.00000 0 15429774.484 12366390.041 16112819.427 10 0 59942 62100.00000 0 16423068.992 13914480.476 13683613.911 10 0 59942 63000.00000 0 17348871.762 15125610.522 10988553.502 10 0 59942 63900.00000 0 18148429.906 15994109.656 8079962.017 10 0 59942 64800.00000 0 18764997.436 16527088.259 5014334.322 10 0 59942 65700.00000 0 19146344.507 16743906.782 1851238.249 10 0 59942 66600.00000 0 19247095.376 16675139.713 -1347845.437 10 0 59942 67500.00000 0 19030795.575 16361078.616 -4520722.132 10 0 59942 68400.00000 0 18471619.982 15849838.164 -7605697.678 10 0 59942 69300.00000 0 17555648.625 15195145.889 -10542783.426 10 0 59942 70200.00000 0 16281655.300 14453909.867 -13274867.946 10 0 59942 71100.00000 0 14661374.640 13683667.934 -15748831.989 10 0 59942 72000.00000 0 12719235.475 12940026.908 -17916584.427 10 0 59942 72900.00000 0 10491570.780 12274200.600 -19735998.801 10 0 59942 73800.00000 0 8025336.537 11730750.933 -21171732.244 10 0 59942 74700.00000 0 5376392.548 11345627.728 -22195910.928 10 0 59942 75600.00000 0 2607416.361 11144589.829 -22788669.152 10 0 59942 76500.00000 0 -214463.249 11142073.969 -22938531.961 10 0 59942 77400.00000 0 -3020215.207 11340558.812 -22642634.344 10 0 59942 78300.00000 0 -5741532.074 11730450.660 -21906773.185 10 0 59942 79200.00000 0 -8313424.509 12290495.326 -20745291.232 10 0 59942 80100.00000 0 -10676677.130 12988698.634 -19180795.579 10 0 59942 81000.00000 0 -12780064.552 13783716.562 -17243716.156 10 0 59942 81900.00000 0 -14582236.441 14626656.389 -14971712.757 10 0 59942 82800.00000 0 -16053194.036 15463212.862 -12408942.026 10 0 59942 83700.00000 0 -17175297.805 16236049.311 -9605198.543 10 0 59942 84600.00000 0 -17943765.398 16887323.225 -6614946.552 10 0 59942 85500.00000 0 -18366640.279 17361249.665 -3496261.228 10 0 59943 0.00000 0 -18464233.708 17606594.204 -309700.387 10 0 59943 900.00000 0 -18268064.738 17578990.072 2882873.028 10 0 59943 1800.00000 0 -17819343.832 17242981.218 6019490.207 10 0 59943 2700.00000 0 -17167065.147 16573705.216 9039279.759 10 0 59943 3600.00000 0 -16365788.365 15558144.296 11883647.235 10 0 59943 4500.00000 0 -15473204.224 14195891.504 14497409.609 10 0 59943 5400.00000 0 -14547586.615 12499399.119 16829862.575 10 0 59943 6300.00000 0 -13645238.605 10493698.109 18835760.297 10 0 59943 7200.00000 0 -12818039.821 8215599.506 20476188.954 10 0 59943 8100.00000 0 -12111198.077 5712410.048 21719317.742 10 0 59943 9000.00000 0 -11561299.411 3040214.442 22541013.371 10 0 59943 9900.00000 0 -11194738.120 261794.651 22925306.590 10 0 59943 10800.00000 0 -11026592.436 -2555728.646 22864702.151 10 0 59943 11700.00000 0 -11059992.858 -5343435.707 22360326.329 10 0 59943 12600.00000 0 -11286009.726 -8033224.259 21421909.103 10 0 59943 13500.00000 0 -11684064.904 -10560395.435 20067600.971 10 0 59943 14400.00000 0 -12222850.665 -12866102.753 18323627.422 10 0 59943 15300.00000 0 -12861717.586 -14899563.099 16223787.015 10 0 59943 16200.00000 0 -13552473.536 -16619938.405 13808802.017 10 0 59943 17100.00000 0 -14241518.412 -17997810.127 11125533.370 10 0 59943 18000.00000 0 -14872224.879 -19016185.275 8226074.610 10 0 59943 18900.00000 0 -15387464.695 -19670992.321 5166741.899 10 0 59943 19800.00000 0 -15732173.685 -19971046.507 2006979.517 10 0 59943 20700.00000 0 -15855846.476 -19937486.393 -1191797.666 10 0 59943 21600.00000 0 -15714854.759 -19602705.846 -4367401.947 10 0 59943 22500.00000 0 -15274490.084 -19008827.022 -7458086.896 10 0 59943 23400.00000 0 -14510643.757 -18205779.412 -10403753.424 10 0 59943 24300.00000 0 -13411051.702 -17249066.715 -13147123.656 10 0 59943 25200.00000 0 -11976050.542 -16197316.520 -15634859.146 10 0 59943 26100.00000 0 -10218811.952 -15109716.897 -17818601.109 10 0 59943 27000.00000 0 -8165044.326 -14043448.551 -19655912.209 10 0 59943 27900.00000 0 -5852173.294 -13051221.221 -21111101.536 10 0 59943 28800.00000 0 -3328034.606 -12179018.255 -22155916.870 10 0 59943 29700.00000 0 -649133.222 -11464144.313 -22770091.125 10 0 59943 30600.00000 0 2121459.480 -10933658.036 -22941732.821 10 0 59943 31500.00000 0 4916483.340 -10603255.208 -22667553.392 10 0 59943 32400.00000 0 7667043.644 -10476648.789 -21952927.404 10 0 59943 33300.00000 0 10305236.404 -10545471.270 -20811784.761 10 0 59943 34200.00000 0 12766736.156 -10789702.830 -19266337.223 10 0 59943 35100.00000 0 14993239.442 -11178606.691 -17346644.594 10 0 59943 36000.00000 0 16934663.162 -11672131.772 -15090028.934 10 0 59943 36900.00000 0 18551007.026 -12222723.096 -12540348.104 10 0 59943 37800.00000 0 19813803.438 -12777463.265 -9747142.645 10 0 59943 38700.00000 0 20707095.323 -13280454.331 -6764672.427 10 0 59943 39600.00000 0 21227901.997 -13675339.237 -3650861.867 10 0 59943 40500.00000 0 21386154.714 -13907856.047 -466174.262 10 0 59943 41400.00000 0 21204105.706 -13928316.807 2727562.770 10 0 59943 42300.00000 0 20715236.529 -13693905.981 5868357.613 10 0 59943 43200.00000 0 19962712.599 -13170701.068 8895257.296 10 0 59943 44100.00000 0 18997449.660 -12335329.674 11749528.934 10 0 59943 45000.00000 0 17875874.154 -11176192.672 14375796.962 10 0 59943 45900.00000 0 16657472.058 -9694201.317 16723114.241 10 0 59943 46800.00000 0 15402229.373 -7902996.512 18745946.537 10 0 59943 47700.00000 0 14168071.752 -5828640.109 20405051.696 10 0 59943 48600.00000 0 13008410.498 -3508790.073 21668236.993 10 0 59943 49500.00000 0 11969897.442 -991392.658 22510980.596 10 0 59943 50400.00000 0 11090482.383 1667055.129 22916905.556 10 0 59943 51300.00000 0 10397853.972 4403601.894 22878097.572 10 0 59943 52200.00000 0 9908328.890 7151211.320 22395260.553 10 0 59943 53100.00000 0 9626235.569 9841307.538 21477706.884 10 0 59943 54000.00000 0 9543818.019 12406391.983 20143182.291 10 0 59943 54900.00000 0 9641663.769 14782624.064 18417528.123 10 0 59943 55800.00000 0 9889637.998 16912259.169 16334186.890 10 0 59943 56700.00000 0 10248284.699 18745843.217 13933559.836 10 0 59943 57600.00000 0 10670636.045 20244072.741 11262228.199 10 0 59943 58500.00000 0 11104353.759 21379243.074 8372052.650 10 0 59943 59400.00000 0 11494112.034 22136224.284 5319167.927 10 0 59943 60300.00000 0 11784121.065 22512924.103 2162891.961 10 0 59943 61200.00000 0 11920684.001 22520218.549 -1035429.108 10 0 59943 62100.00000 0 11854678.417 22181353.408 -4213617.264 10 0 59943 63000.00000 0 11543856.355 21530842.136 -7309876.480 10 0 59943 63900.00000 0 10954864.589 20612907.023 -10263999.702 10 0 59943 64800.00000 0 10064898.463 19479529.919 -13018544.824 10 0 59943 65700.00000 0 8862918.228 18188195.238 -15519956.127 10 0 59943 66600.00000 0 7350375.355 16799421.003 -17719608.782 10 0 59943 67500.00000 0 5541417.046 15374182.411 -19574755.870 10 0 59943 68400.00000 0 3462559.232 13971336.733 -21049359.460 10 0 59943 69300.00000 0 1151840.784 12645158.058 -22114789.659 10 0 59943 70200.00000 0 -1342506.576 11443085.408 -22750378.449 10 0 59943 71100.00000 0 -3963817.987 10403778.489 -22943817.949 10 0 59943 72000.00000 0 -6649112.046 9555562.167 -22691395.824 10 0 59943 72900.00000 0 -9331476.880 8915324.243 -21998063.712 10 0 59943 73800.00000 0 -11942627.063 8487911.881 -20877337.638 10 0 59943 74700.00000 0 -14415525.579 8266051.141 -19351032.566 10 0 59943 75600.00000 0 -16686962.445 8230792.039 -17448836.304 10 0 59943 76500.00000 0 -18699983.342 8352459.491 -15207730.978 10 0 59943 77400.00000 0 -20406067.694 8592069.315 -12671273.218 10 0 59943 78300.00000 0 -21766966.158 8903148.898 -9888746.928 10 0 59943 79200.00000 0 -22756121.543 9233885.081 -6914204.947 10 0 59943 80100.00000 0 -23359614.539 9529508.076 -3805418.291 10 0 59943 81000.00000 0 -23576595.519 9734810.208 -622753.442 10 0 59943 81900.00000 0 -23419185.198 9796692.616 2572000.385 10 0 59943 82800.00000 0 -22911849.141 9666631.839 5716830.911 10 0 59943 83700.00000 0 -22090273.217 9302961.653 8750705.913 10 0 59943 84600.00000 0 -20999787.943 8672873.305 11614756.318 10 0 59943 85500.00000 0 -19693408.480 7754049.243 14253416.156 10 0 59944 0.00000 0 -18229573.113 6535861.001 16615497.227 10 0 59944 900.00000 0 -16669674.517 5020079.335 18655179.123 10 0 59944 1800.00000 0 -15075489.291 3221067.653 20332892.663 10 0 59944 2700.00000 0 -13506610.621 1165447.305 21616084.455 10 0 59944 3600.00000 0 -12017993.051 -1108750.902 22479845.048 10 0 59944 4500.00000 0 -10657710.767 -3553415.500 22907390.369 10 0 59944 5400.00000 0 -9465022.635 -6112109.430 22890387.286 10 0 59944 6300.00000 0 -8468824.195 -8722179.852 22429117.201 10 0 59944 7200.00000 0 -7686550.773 -11317136.292 21532474.423 10 0 59944 8100.00000 0 -7123577.035 -13829199.595 20217799.080 10 0 59944 9000.00000 0 -6773137.716 -16191916.880 18510547.223 10 0 59944 9900.00000 0 -6616772.560 -18342734.516 16443803.837 10 0 59944 10800.00000 0 -6625276.572 -20225422.711 14057647.377 10 0 59944 11700.00000 0 -6760115.447 -21792251.016 11398377.354 10 0 59944 12600.00000 0 -6975246.448 -23005824.046 8517619.326 10 0 59944 13500.00000 0 -7219267.645 -23840500.704 5471324.190 10 0 59944 14400.00000 0 -7437804.386 -24283337.369 2318680.981 10 0 59944 15300.00000 0 -7576031.585 -24334515.373 -879035.541 10 0 59944 16200.00000 0 -7581224.348 -24007234.751 -4059659.778 10 0 59944 17100.00000 0 -7405228.062 -23327078.853 -7161348.882 10 0 59944 18000.00000 0 -7006742.369 -22330876.679 -10123790.666 10 0 59944 18900.00000 0 -6353321.191 -21065111.232 -12889381.621 10 0 59944 19800.00000 0 -5423003.050 -19583941.278 -15404351.513 10 0 59944 20700.00000 0 -4205501.621 -17946920.260 -17619812.088 10 0 59944 21600.00000 0 -2702905.121 -16216508.766 -19492709.226 10 0 59944 22500.00000 0 -929853.932 -14455485.386 -20986660.009 10 0 59944 23400.00000 0 1086812.045 -12724364.899 -22072658.490 10 0 59944 24300.00000 0 3308922.518 -11078932.020 -22729636.846 10 0 59944 25200.00000 0 5688327.006 -9567993.772 -22944871.423 10 0 59944 26100.00000 0 8168670.485 -8231444.128 -22714226.240 10 0 59944 27000.00000 0 10687521.184 -7098721.157 -22042229.655 10 0 59944 27900.00000 0 13178762.571 -6187720.312 -20941983.019 10 0 59944 28800.00000 0 15575150.493 -5504208.295 -19434903.295 10 0 59944 29700.00000 0 17810929.526 -5041760.862 -17550304.700 10 0 59944 30600.00000 0 19824400.177 -4782225.966 -15324827.437 10 0 59944 31500.00000 0 21560330.323 -4696691.637 -12801724.535 10 0 59944 32400.00000 0 22972110.872 -4746916.768 -10030020.505 10 0 59944 33300.00000 0 24023566.125 -4887163.562 -7063558.062 10 0 59944 34200.00000 0 24690343.644 -5066353.504 -3959951.452 10 0 59944 35100.00000 0 24960826.066 -5230455.078 -779466.791 10 0 59944 36000.00000 0 24836527.236 -5325001.702 2416148.719 10 0 59944 36900.00000 0 24331956.668 -5297632.912 5564865.658 10 0 59944 37800.00000 0 23473958.620 -5100550.870 8605575.880 10 0 59944 38700.00000 0 22300554.062 -4692787.881 11479277.135 10 0 59944 39600.00000 0 20859334.589 -4042188.727 14130215.678 10 0 59944 40500.00000 0 19205475.963 -3127023.608 16506964.851 10 0 59944 41400.00000 0 17399454.655 -1937163.085 18563418.980 10 0 59944 42300.00000 0 15504563.014 -474764.868 20259683.661 10 0 59944 43200.00000 0 13584326.711 1245557.403 21562845.754 10 0 59944 44100.00000 0 11699931.968 3197091.564 22447608.731 10 0 59944 45000.00000 0 9907769.434 5341896.857 22896781.546 10 0 59944 45900.00000 0 8257196.473 7632151.496 22901612.014 10 0 59944 46800.00000 0 6788610.439 10011923.172 22461958.428 10 0 59944 47700.00000 0 5531912.580 12419290.165 21586296.043 10 0 59944 48600.00000 0 4505425.940 14788726.152 20291558.045 10 0 59944 49500.00000 0 3715311.774 17053650.665 18602813.501 10 0 59944 50400.00000 0 3155508.361 19149039.877 16552787.868 10 0 59944 51300.00000 0 2808194.267 21013989.642 14181234.534 10 0 59944 52200.00000 0 2644756.172 22594124.266 11534168.756 10 0 59944 53100.00000 0 2627220.194 23843750.442 8662978.253 10 0 59944 54000.00000 0 2710085.958 24727666.177 5623427.187 10 0 59944 54900.00000 0 2842485.526 25222548.669 2474572.684 10 0 59944 55800.00000 0 2970575.353 25317862.521 -722384.943 10 0 59944 56700.00000 0 3040059.322 25016249.899 -3905295.559 10 0 59944 57600.00000 0 2998735.194 24333385.950 -7012272.457 10 0 59944 58500.00000 0 2798955.617 23297305.459 -9982901.070 10 0 59944 59400.00000 0 2399898.450 21947229.151 -12759418.998 10 0 59944 60300.00000 0 1769549.151 20331939.115 -15287843.703 10 0 59944 61200.00000 0 886310.331 18507771.988 -17519025.389 10 0 59944 62100.00000 0 -259830.658 16536314.454 -19409604.300 10 0 59944 63000.00000 0 -1666626.376 14481898.025 -20922853.771 10 0 59944 63900.00000 0 -3319415.657 12408998.316 -22029392.723 10 0 59944 64800.00000 0 -5191499.084 10379647.681 -22707754.130 10 0 59944 65700.00000 0 -7245028.795 8450969.160 -22944798.816 10 0 59944 66600.00000 0 -9432376.150 6672934.419 -22735967.016 10 0 59944 67500.00000 0 -11697920.888 5086438.558 -22085363.243 10 0 59944 68400.00000 0 -13980187.810 3721771.261 -21005673.151 10 0 59944 69300.00000 0 -16214242.390 2597547.046 -19517914.212 10 0 59944 70200.00000 0 -18334245.964 1720138.039 -17651025.128 10 0 59944 71100.00000 0 -20276064.423 1083631.625 -15441301.887 10 0 59944 72000.00000 0 -21979821.867 670313.372 -12931691.330 10 0 59944 72900.00000 0 -23392292.979 451653.603 -10170955.815 10 0 59944 73800.00000 0 -24469034.460 389754.824 -7212725.065 10 0 59944 74700.00000 0 -25176166.608 439197.941 -4114453.672 10 0 59944 75600.00000 0 -25491730.762 549208.357 -936304.532 10 0 59944 76500.00000 0 -25406566.083 666049.643 2260019.955 10 0 59944 77400.00000 0 -24924669.179 735542.925 5412475.937 10 0 59944 78300.00000 0 -24063021.894 705604.885 8459881.960 10 0 59944 79200.00000 0 -22850894.761 528696.564 11343105.085 10 0 59944 80100.00000 0 -21328655.631 164079.074 14006206.119 10 0 59944 81000.00000 0 -19546133.568 -420219.486 16397521.857 10 0 59944 81900.00000 0 -17560606.543 -1245809.377 18470663.624 10 0 59944 82800.00000 0 -15434496.992 -2322784.555 20185413.069 10 0 59944 83700.00000 0 -13232871.237 -3649057.317 21508498.442 10 0 59944 84600.00000 0 -11020846.580 -5210211.138 22414236.862 10 0 59944 85500.00000 0 -8861013.622 -6979878.931 22885030.631 10 0 59945 0.00000 0 -6810980.558 -8920632.057 22911708.454 10 0 59945 900.00000 0 -4921139.784 -10985345.391 22493705.076 10 0 59945 1800.00000 0 -3232751.692 -13118980.232 21639075.910 10 0 59945 2700.00000 0 -1776420.942 -15260715.596 20364346.125 10 0 59945 3600.00000 0 -571030.678 -17346337.656 18694196.466 10 0 59945 4500.00000 0 376822.641 -19310789.731 16660991.263 10 0 59945 5400.00000 0 1072870.663 -21090776.940 14304157.001 10 0 59945 6300.00000 0 1534689.739 -22627317.250 11669422.644 10 0 59945 7200.00000 0 1790713.479 -23868132.242 8807935.832 10 0 59945 8100.00000 0 1878783.441 -24769777.422 5775271.623 10 0 59945 9000.00000 0 1844299.646 -25299422.363 2630352.747 10 0 59945 9900.00000 0 1738049.644 -25436205.413 -565697.474 10 0 59945 10800.00000 0 1613808.736 -25172105.543 -3750746.960 10 0 59945 11700.00000 0 1525813.741 -24512294.109 -6862867.731 10 0 59945 12600.00000 0 1526218.249 -23474951.318 -9841545.447 10 0 59945 13500.00000 0 1662638.139 -22090554.848 -12628861.379 10 0 59945 14400.00000 0 1975892.326 -20400670.372 -15170623.184 10 0 59945 15300.00000 0 2498035.341 -18456294.850 -17417421.889 10 0 59945 16200.00000 0 3250765.906 -16315822.182 -19325594.252 10 0 59945 17100.00000 0 4244279.647 -14042716.624 -20858071.735 10 0 59945 18000.00000 0 5476615.156 -11702991.483 -21985099.647 10 0 59945 18900.00000 0 6933521.785 -9362598.448 -22684812.873 10 0 59945 19800.00000 0 8588855.548 -7084836.358 -22943657.400 10 0 59945 20700.00000 0 10405487.215 -4927887.167 -22756649.935 10 0 59945 21600.00000 0 12336685.301 -2942581.152 -22127470.991 10 0 59945 22500.00000 0 14327916.751 -1170483.652 -21068389.986 10 0 59945 23400.00000 0 16318990.544 357617.959 -19600023.995 10 0 59945 24300.00000 0 18246455.184 1622765.210 -17750934.943 10 0 59945 25200.00000 0 20046150.296 2618374.944 -15557072.979 10 0 59945 26100.00000 0 21655805.953 3350259.753 -13061076.759 10 0 59945 27000.00000 0 23017581.297 3836123.138 -10311444.122 10 0 59945 27900.00000 0 24080436.398 4104552.057 -7361589.093 10 0 59945 28800.00000 0 24802238.114 4193550.534 -4268803.598 10 0 59945 29700.00000 0 25151511.807 4148677.374 -1093144.093 10 0 59945 30600.00000 0 25108765.554 4020867.586 2103735.164 10 0 59945 31500.00000 0 24667331.360 3864030.374 5259779.216 10 0 59945 32400.00000 0 23833688.187 3732525.939 8313736.505 10 0 59945 33300.00000 0 22627253.305 3678628.291 11206346.395 10 0 59945 34200.00000 0 21079650.741 3750081.720 13881486.954 10 0 59945 35100.00000 0 19233487.463 3987854.540 16287260.823 10 0 59945 36000.00000 0 17140688.346 4424185.229 18376998.368 10 0 59945 36900.00000 0 14860459.296 5081003.730 20110158.997 10 0 59945 37800.00000 0 12456963.156 5968794.864 21453113.711 10 0 59945 38700.00000 0 9996804.675 7085952.297 22379794.297 10 0 59945 39600.00000 0 7546428.670 8418650.984 22872197.074 10 0 59945 40500.00000 0 5169538.751 9941244.467 22920731.892 10 0 59945 41400.00000 0 2924643.038 11617171.599 22524409.833 10 0 59945 42300.00000 0 862828.051 13400335.995 21690865.975 10 0 59945 43200.00000 0 -974147.660 15236901.910 20436216.508 10 0 59945 44100.00000 0 -2555361.671 17067432.721 18784752.453 10 0 59945 45000.00000 0 -3861775.591 18829283.693 16768475.229 10 0 59945 45900.00000 0 -4886779.760 20459149.821 14426482.276 10 0 59945 46800.00000 0 -5636212.701 21895662.674 11804213.827 10 0 59945 47700.00000 0 -6127855.113 23081927.627 8952574.776 10 0 59945 48600.00000 0 -6390420.357 23967894.985 5926948.225 10 0 59945 49500.00000 0 -6462084.597 24512465.068 2786119.534 10 0 59945 50400.00000 0 -6388619.283 24685238.169 -408868.021 10 0 59945 51300.00000 0 -6221205.658 24467835.082 -3595903.471 10 0 59945 52200.00000 0 -6014024.586 23854731.881 -6713020.586 10 0 59945 53100.00000 0 -5821724.624 22853573.103 -9699608.130 10 0 59945 54000.00000 0 -5696876.488 21484949.587 -12497593.734 10 0 59945 54900.00000 0 -5687522.676 19781649.835 -15052577.688 10 0 59945 55800.00000 0 -5834926.848 17787416.050 -17314893.995 10 0 59945 56700.00000 0 -6171619.013 15555256.886 -19240577.789 10 0 59945 57600.00000 0 -6719819.882 13145387.437 -20792220.201 10 0 59945 58500.00000 0 -7490311.587 10622882.652 -21939694.163 10 0 59945 59400.00000 0 -8481802.974 8055142.027 -22660737.383 10 0 59945 60300.00000 0 -9680816.773 5509271.100 -22941381.581 10 0 59945 61200.00000 0 -11062103.923 3049488.537 -22776220.121 10 0 59945 62100.00000 0 -12589568.184 734666.180 -22168509.281 10 0 59945 63000.00000 0 -14217662.769 -1383896.373 -21130101.546 10 0 59945 63900.00000 0 -15893200.910 -3264370.922 -19681212.431 10 0 59945 64800.00000 0 -17557504.952 -4875895.699 -17850025.456 10 0 59945 65700.00000 0 -19148804.323 -6199605.292 -15672142.883 10 0 59945 66600.00000 0 -20604782.190 -7229153.857 -13189892.800 10 0 59945 67500.00000 0 -21865164.264 -7970711.326 -10451505.869 10 0 59945 68400.00000 0 -22874241.353 -8442434.257 -7510177.573 10 0 59945 69300.00000 0 -23583219.832 -8673435.033 -4423034.221 10 0 59945 70200.00000 0 -23952301.342 -8702294.099 -1250022.820 10 0 59945 71100.00000 0 -23952404.324 -8575179.197 1947253.530 10 0 59945 72000.00000 0 -23566454.961 -8343651.897 5106731.778 10 0 59945 72900.00000 0 -22790193.190 -8062254.923 8167093.211 10 0 59945 73800.00000 0 -21632459.764 -7785982.849 11068952.353 10 0 59945 74700.00000 0 -20114952.159 -7567743.452 13756007.225 10 0 59945 75600.00000 0 -18271459.278 -7455917.325 16176128.778 10 0 59945 76500.00000 0 -16146606.641 -7492118.946 18282368.585 10 0 59945 77400.00000 0 -13794164.093 -7709253.838 20033865.598 10 0 59945 78300.00000 0 -11274986.077 -8129953.904 21396634.929 10 0 59945 79200.00000 0 -8654669.594 -8765457.073 22344223.934 10 0 59945 80100.00000 0 -6001026.568 -9614978.847 22858223.386 10 0 59945 81000.00000 0 -3381474.759 -10665602.751 22928624.289 10 0 59945 81900.00000 0 -860454.604 -11892695.199 22554013.653 10 0 59945 82800.00000 0 1503021.641 -13260828.314 21741605.419 10 0 59945 83700.00000 0 3657587.681 -14725173.217 20507105.703 10 0 59945 84600.00000 0 5561416.688 -16233306.547 18874414.418 10 0 59945 85500.00000 0 7183712.473 -17727355.562 16875168.422 99